Time,TemperatureF,DewpointF,PressureIn,WindDirection,WindDirectionDegrees,WindSpeedMPH,WindSpeedGustMPH,Humidity,HourlyPrecipIn,Conditions,Clouds,dailyrainin,SoftwareType,DateUTC
2013-09-04 00:01:00,56.9,53.5,30.04,SW,228,0.0,0.0,88,0.00,,---,0.00,VWS V14.01,2013-09-04 05:01:00,
2013-09-04 00:06:00,56.6,53.2,30.04,SW,228,0.0,0.0,88,0.00,,---,0.00,VWS V14.01,2013-09-04 05:06:00,
2013-09-04 00:11:00,56.5,53.1,30.04,SW,228,0.0,0.0,88,0.00,,---,0.00,VWS V14.01,2013-09-04 05:11:00,
2013-09-04 00:16:00,56.3,52.9,30.04,SW,228,0.0,0.0,88,0.00,,---,0.00,VWS V14.01,2013-09-04 05:16:00,
2013-09-04 00:21:00,56.1,52.7,30.04,SW,228,0.0,0.0,88,0.00,,---,0.00,VWS V14.01,2013-09-04 05:21:00,
2013-09-04 00:26:00,56.1,52.7,30.05,SW,228,0.0,0.0,88,0.00,,---,0.00,VWS V14.01,2013-09-04 05:26:00,
2013-09-04 00:31:00,56.0,52.6,30.04,SW,228,0.0,0.0,88,0.00,,---,0.00,VWS V14.01,2013-09-04 05:31:00,
2013-09-04 00:36:00,56.3,53.5,30.05,SW,226,0.0,0.0,90,0.00,,---,0.00,VWS V14.01,2013-09-04 05:36:00,
2013-09-04 00:41:00,56.6,53.8,30.05,SW,226,0.0,0.0,90,0.00,,---,0.00,VWS V14.01,2013-09-04 05:41:00,
2013-09-04 00:46:00,56.6,53.5,30.05,SW,226,0.0,0.0,89,0.00,,---,0.00,VWS V14.01,2013-09-04 05:46:00,
2013-09-04 00:51:00,56.5,53.4,30.05,SW,226,0.0,0.0,89,0.00,,---,0.00,VWS V14.01,2013-09-04 05:51:00,
2013-09-04 00:56:00,56.3,53.2,30.05,SW,226,0.0,0.0,89,0.00,,---,0.00,VWS V14.01,2013-09-04 05:56:00,
2013-09-04 01:01:00,56.0,52.9,30.05,SW,226,0.0,0.0,89,0.00,,---,0.00,VWS V14.01,2013-09-04 06:01:00,
2013-09-04 01:06:00,56.0,52.9,30.06,SW,226,0.0,0.0,89,0.00,,---,0.00,VWS V14.01,2013-09-04 06:06:00,
2013-09-04 01:11:00,55.8,52.7,30.06,SW,227,0.0,0.0,89,0.00,,---,0.00,VWS V14.01,2013-09-04 06:11:00,
2013-09-04 01:16:00,55.6,52.5,30.06,SW,226,0.0,0.0,89,0.00,,---,0.00,VWS V14.01,2013-09-04 06:16:00,
2013-09-04 01:21:00,55.3,52.2,30.06,SW,226,0.0,0.0,89,0.00,,---,0.00,VWS V14.01,2013-09-04 06:21:00,
2013-09-04 01:26:00,54.9,51.5,30.06,SW,226,0.0,0.0,88,0.00,,---,0.00,VWS V14.01,2013-09-04 06:26:00,
2013-09-04 01:31:00,54.6,51.2,30.06,SW,226,0.0,0.0,88,0.00,,---,0.00,VWS V14.01,2013-09-04 06:31:00,
2013-09-04 01:36:00,54.5,51.4,30.06,SW,226,0.0,0.0,89,0.00,,---,0.00,VWS V14.01,2013-09-04 06:36:00,
2013-09-04 01:41:00,54.3,51.2,30.06,SW,226,0.0,0.0,89,0.00,,---,0.00,VWS V14.01,2013-09-04 06:41:00,
2013-09-04 01:46:00,54.1,51.0,30.06,SW,226,0.0,0.0,89,0.00,,---,0.00,VWS V14.01,2013-09-04 06:46:00,
2013-09-04 01:51:00,54.0,50.9,30.07,SW,226,0.0,0.0,89,0.00,,---,0.00,VWS V14.01,2013-09-04 06:51:00,
2013-09-04 01:56:00,53.9,50.8,30.07,SW,226,0.0,0.0,89,0.00,,---,0.00,VWS V14.01,2013-09-04 06:56:00,
2013-09-04 02:01:00,53.9,50.8,30.07,SW,226,0.0,0.0,89,0.00,,---,0.00,VWS V14.01,2013-09-04 07:01:00,
2013-09-04 02:06:00,53.7,50.6,30.07,SW,226,0.0,0.0,89,0.00,,---,0.00,VWS V14.01,2013-09-04 07:06:00,
2013-09-04 02:11:00,53.6,50.5,30.06,SW,226,0.0,0.0,89,0.00,,---,0.00,VWS V14.01,2013-09-04 07:11:00,
2013-09-04 02:16:00,53.7,50.6,30.07,SW,227,0.0,0.0,89,0.00,,---,0.00,VWS V14.01,2013-09-04 07:16:00,
2013-09-04 02:21:00,53.7,50.6,30.07,SW,226,0.0,0.0,89,0.00,,---,0.00,VWS V14.01,2013-09-04 07:21:00,
2013-09-04 02:26:00,53.6,50.5,30.07,SW,226,0.0,0.0,89,0.00,,---,0.00,VWS V14.01,2013-09-04 07:26:00,
2013-09-04 02:31:00,53.5,50.4,30.07,SW,226,0.0,0.0,89,0.00,,---,0.00,VWS V14.01,2013-09-04 07:31:00,
2013-09-04 02:36:00,53.3,50.2,30.07,SW,226,0.0,0.0,89,0.00,,---,0.00,VWS V14.01,2013-09-04 07:36:00,
2013-09-04 02:41:00,53.1,50.0,30.07,SW,226,0.0,0.0,89,0.00,,---,0.00,VWS V14.01,2013-09-04 07:41:00,
2013-09-04 02:46:00,53.1,50.3,30.07,SW,226,0.0,0.0,90,0.00,,---,0.00,VWS V14.01,2013-09-04 07:46:00,
2013-09-04 02:51:00,52.9,50.1,30.07,SW,226,0.0,0.0,90,0.00,,---,0.00,VWS V14.01,2013-09-04 07:51:00,
2013-09-04 02:56:00,52.8,50.0,30.08,SW,226,0.0,0.0,90,0.00,,---,0.00,VWS V14.01,2013-09-04 07:56:00,
2013-09-04 03:01:00,53.0,50.2,30.08,SW,226,0.0,0.0,90,0.00,,---,0.00,VWS V14.01,2013-09-04 08:01:00,
2013-09-04 03:06:00,52.9,50.1,30.08,SW,226,0.0,0.0,90,0.00,,---,0.00,VWS V14.01,2013-09-04 08:06:00,
2013-09-04 03:11:00,52.8,50.0,30.08,SW,226,0.0,0.0,90,0.00,,---,0.00,VWS V14.01,2013-09-04 08:11:00,
2013-09-04 03:16:00,52.6,49.8,30.08,SW,226,0.0,0.0,90,0.00,,---,0.00,VWS V14.01,2013-09-04 08:16:00,
2013-09-04 03:21:00,52.4,49.3,30.08,SW,226,0.0,0.0,89,0.00,,---,0.00,VWS V14.01,2013-09-04 08:21:00,
2013-09-04 03:26:00,52.2,49.2,30.08,SW,226,0.0,0.0,89,0.00,,---,0.00,VWS V14.01,2013-09-04 08:26:00,
2013-09-04 03:31:00,52.1,49.3,30.08,SW,226,0.0,0.0,90,0.00,,---,0.00,VWS V14.01,2013-09-04 08:31:00,
2013-09-04 03:35:00,52.3,49.5,30.08,SW,226,0.0,0.0,90,0.00,,---,0.00,VWS V14.01,2013-09-04 08:35:00,
2013-09-04 03:40:00,52.4,49.6,30.08,SW,226,0.0,0.0,90,0.00,,---,0.00,VWS V14.01,2013-09-04 08:40:00,
2013-09-04 03:45:00,52.2,49.4,30.08,SW,226,0.0,0.0,90,0.00,,---,0.00,VWS V14.01,2013-09-04 08:45:00,
2013-09-04 03:50:00,52.1,49.3,30.08,SW,226,0.0,0.0,90,0.00,,---,0.00,VWS V14.01,2013-09-04 08:50:00,
2013-09-04 03:55:00,52.0,49.2,30.08,SW,226,0.0,0.0,90,0.00,,---,0.00,VWS V14.01,2013-09-04 08:55:00,
2013-09-04 04:00:00,52.0,49.2,30.08,SW,226,0.0,0.0,90,0.00,,---,0.00,VWS V14.01,2013-09-04 09:00:00,
2013-09-04 04:05:00,51.8,49.0,30.09,SW,226,0.0,0.0,90,0.00,,---,0.00,VWS V14.01,2013-09-04 09:05:00,
2013-09-04 04:10:00,51.6,48.8,30.09,SW,227,0.0,0.0,90,0.00,,---,0.00,VWS V14.01,2013-09-04 09:10:00,
2013-09-04 04:15:00,51.4,48.6,30.09,SW,226,0.0,0.0,90,0.00,,---,0.00,VWS V14.01,2013-09-04 09:15:00,
2013-09-04 04:20:00,51.3,48.5,30.09,SW,226,0.0,0.0,90,0.00,,---,0.00,VWS V14.01,2013-09-04 09:20:00,
2013-09-04 04:25:00,51.4,48.6,30.09,SW,227,0.0,0.0,90,0.00,,---,0.00,VWS V14.01,2013-09-04 09:25:00,
2013-09-04 04:30:00,51.4,48.6,30.09,SW,226,0.0,0.0,90,0.00,,---,0.00,VWS V14.01,2013-09-04 09:30:00,
2013-09-04 04:35:00,51.4,48.6,30.09,SW,226,0.0,0.0,90,0.00,,---,0.00,VWS V14.01,2013-09-04 09:35:00,
2013-09-04 04:40:00,51.5,48.7,30.09,SW,226,0.0,0.0,90,0.00,,---,0.00,VWS V14.01,2013-09-04 09:40:00,
2013-09-04 04:45:00,51.4,48.6,30.09,SW,226,0.0,0.0,90,0.00,,---,0.00,VWS V14.01,2013-09-04 09:45:00,
2013-09-04 04:50:00,51.4,48.6,30.09,SW,226,0.0,0.0,90,0.00,,---,0.00,VWS V14.01,2013-09-04 09:50:00,
2013-09-04 04:55:00,51.2,48.4,30.09,SW,226,0.0,0.0,90,0.00,,---,0.00,VWS V14.01,2013-09-04 09:55:00,
2013-09-04 05:00:00,50.9,48.1,30.09,SW,226,0.0,0.0,90,0.00,,---,0.00,VWS V14.01,2013-09-04 10:00:00,
2013-09-04 05:05:00,50.7,47.9,30.10,SW,226,0.0,0.0,90,0.00,,---,0.00,VWS V14.01,2013-09-04 10:05:00,
2013-09-04 05:10:00,50.9,48.1,30.10,SW,226,0.0,0.0,90,0.00,,---,0.00,VWS V14.01,2013-09-04 10:10:00,
2013-09-04 05:15:00,50.8,48.0,30.10,SW,226,0.0,0.0,90,0.00,,---,0.00,VWS V14.01,2013-09-04 10:15:00,
2013-09-04 05:20:00,50.6,47.8,30.10,SW,226,0.0,0.0,90,0.00,,---,0.00,VWS V14.01,2013-09-04 10:20:00,
2013-09-04 05:25:00,50.4,47.6,30.10,SW,226,0.0,0.0,90,0.00,,---,0.00,VWS V14.01,2013-09-04 10:25:00,
2013-09-04 05:30:00,50.4,47.6,30.10,SW,226,0.0,0.0,90,0.00,,---,0.00,VWS V14.01,2013-09-04 10:30:00,
2013-09-04 05:35:00,50.4,47.6,30.10,SW,226,0.0,0.0,90,0.00,,---,0.00,VWS V14.01,2013-09-04 10:35:00,
2013-09-04 05:40:00,50.6,47.8,30.11,SW,226,0.0,0.0,90,0.00,,---,0.00,VWS V14.01,2013-09-04 10:40:00,
2013-09-04 05:45:00,50.5,47.7,30.10,SW,226,0.0,0.0,90,0.00,,---,0.00,VWS V14.01,2013-09-04 10:45:00,
2013-09-04 05:50:00,50.4,47.6,30.11,SW,226,0.0,0.0,90,0.00,,---,0.00,VWS V14.01,2013-09-04 10:50:00,
2013-09-04 05:55:00,50.2,47.5,30.11,SW,226,0.0,0.0,90,0.00,,---,0.00,VWS V14.01,2013-09-04 10:55:00,
2013-09-04 06:00:00,50.0,47.2,30.11,SW,226,0.0,0.0,90,0.00,,---,0.00,VWS V14.01,2013-09-04 11:00:00,
2013-09-04 06:05:00,50.0,47.2,30.11,SW,226,0.0,0.0,90,0.00,,---,0.00,VWS V14.01,2013-09-04 11:05:00,
2013-09-04 06:10:00,50.0,47.2,30.11,SW,226,0.0,0.0,90,0.00,,---,0.00,VWS V14.01,2013-09-04 11:10:00,
2013-09-04 06:15:00,50.0,47.2,30.11,SW,226,0.0,0.0,90,0.00,,---,0.00,VWS V14.01,2013-09-04 11:15:00,
2013-09-04 06:20:00,50.0,47.2,30.12,SW,226,0.0,0.0,90,0.00,,---,0.00,VWS V14.01,2013-09-04 11:20:00,
2013-09-04 06:25:00,49.9,47.2,30.12,SW,226,0.0,0.0,90,0.00,,---,0.00,VWS V14.01,2013-09-04 11:25:00,
2013-09-04 06:30:00,49.9,47.2,30.12,SW,226,0.0,0.0,90,0.00,,---,0.00,VWS V14.01,2013-09-04 11:30:00,
2013-09-04 06:35:00,49.7,47.0,30.12,SW,226,0.0,0.0,90,0.00,,---,0.00,VWS V14.01,2013-09-04 11:35:00,
2013-09-04 06:40:00,49.8,47.0,30.12,SW,226,0.0,0.0,90,0.00,,---,0.00,VWS V14.01,2013-09-04 11:40:00,
2013-09-04 06:45:00,50.0,47.2,30.12,SW,226,0.0,0.0,90,0.00,,---,0.00,VWS V14.01,2013-09-04 11:45:00,
2013-09-04 06:50:00,50.2,47.7,30.12,SW,226,0.0,0.0,91,0.00,,---,0.00,VWS V14.01,2013-09-04 11:50:00,
2013-09-04 06:55:00,50.2,47.7,30.12,SW,226,0.0,0.0,91,0.00,,---,0.00,VWS V14.01,2013-09-04 11:55:00,
2013-09-04 07:00:00,50.3,47.8,30.12,SW,226,0.0,0.0,91,0.00,,---,0.00,VWS V14.01,2013-09-04 12:00:00,
2013-09-04 07:05:00,50.4,47.9,30.12,SW,226,0.0,0.0,91,0.00,,---,0.00,VWS V14.01,2013-09-04 12:05:00,
2013-09-04 07:10:00,50.7,48.2,30.12,SW,226,0.0,0.0,91,0.00,,---,0.00,VWS V14.01,2013-09-04 12:10:00,
2013-09-04 07:15:00,50.9,48.4,30.13,SW,226,0.0,0.0,91,0.00,,---,0.00,VWS V14.01,2013-09-04 12:15:00,
2013-09-04 07:20:00,51.0,48.5,30.13,SW,226,0.0,0.0,91,0.00,,---,0.00,VWS V14.01,2013-09-04 12:20:00,
2013-09-04 07:25:00,51.0,48.5,30.13,SW,226,0.0,0.0,91,0.00,,---,0.00,VWS V14.01,2013-09-04 12:25:00,
2013-09-04 07:30:00,51.3,48.8,30.13,SW,226,0.0,0.0,91,0.00,,---,0.00,VWS V14.01,2013-09-04 12:30:00,
2013-09-04 07:35:00,51.6,49.1,30.13,SW,226,0.0,0.0,91,0.00,,---,0.00,VWS V14.01,2013-09-04 12:35:00,
2013-09-04 07:40:00,51.9,49.4,30.13,SW,226,0.0,0.0,91,0.00,,---,0.00,VWS V14.01,2013-09-04 12:40:00,
2013-09-04 07:45:00,52.2,49.7,30.13,SW,226,0.0,0.0,91,0.00,,---,0.00,VWS V14.01,2013-09-04 12:45:00,
2013-09-04 07:50:00,52.6,50.1,30.14,SW,226,0.0,0.0,91,0.00,,---,0.00,VWS V14.01,2013-09-04 12:50:00,
2013-09-04 07:55:00,53.3,50.8,30.13,SW,226,0.0,0.0,91,0.00,,---,0.00,VWS V14.01,2013-09-04 12:55:00,
2013-09-04 08:00:00,53.8,51.3,30.13,SW,226,0.0,0.0,91,0.00,,---,0.00,VWS V14.01,2013-09-04 13:00:00,
2013-09-04 08:05:00,54.2,51.7,30.13,SW,226,0.0,0.0,91,0.00,,---,0.00,VWS V14.01,2013-09-04 13:05:00,
2013-09-04 08:10:00,54.8,52.3,30.13,SW,226,0.0,0.0,91,0.00,,---,0.00,VWS V14.01,2013-09-04 13:10:00,
2013-09-04 08:15:00,55.5,53.0,30.13,SW,226,0.0,0.0,91,0.00,,---,0.00,VWS V14.01,2013-09-04 13:15:00,
2013-09-04 08:20:00,56.1,53.6,30.13,SW,226,0.0,0.0,91,0.00,,---,0.00,VWS V14.01,2013-09-04 13:20:00,
2013-09-04 08:25:00,56.7,54.2,30.13,SW,226,0.0,0.0,91,0.00,,---,0.00,VWS V14.01,2013-09-04 13:25:00,
2013-09-04 08:30:00,57.5,54.9,30.13,SW,225,0.0,0.0,91,0.00,,---,0.00,VWS V14.01,2013-09-04 13:30:00,
2013-09-04 08:35:00,58.1,55.5,30.13,SW,225,0.0,0.0,91,0.00,,---,0.00,VWS V14.01,2013-09-04 13:35:00,
2013-09-04 08:40:00,59.3,56.7,30.13,SW,225,0.0,0.0,91,0.00,,---,0.00,VWS V14.01,2013-09-04 13:40:00,
2013-09-04 08:45:00,60.5,57.9,30.13,SW,225,0.0,0.0,91,0.00,,---,0.00,VWS V14.01,2013-09-04 13:45:00,
2013-09-04 08:50:00,60.7,58.1,30.13,SW,225,0.0,0.0,91,0.00,,---,0.00,VWS V14.01,2013-09-04 13:50:00,
2013-09-04 08:55:00,60.8,58.2,30.14,SW,225,0.0,0.0,91,0.00,,---,0.00,VWS V14.01,2013-09-04 13:55:00,
2013-09-04 09:00:00,61.2,58.6,30.14,NW,307,0.0,0.0,91,0.00,,---,0.00,VWS V14.01,2013-09-04 14:00:00,
2013-09-04 09:05:00,61.9,57.8,30.14,West,280,0.0,0.0,86,0.00,,---,0.00,VWS V14.01,2013-09-04 14:05:00,
2013-09-04 09:10:00,62.8,57.8,30.14,West,269,0.0,0.0,84,0.00,,---,0.00,VWS V14.01,2013-09-04 14:10:00,
2013-09-04 09:15:00,63.7,57.7,30.14,West,277,0.0,0.0,81,0.00,,---,0.00,VWS V14.01,2013-09-04 14:15:00,
2013-09-04 09:20:00,64.4,57.8,30.14,West,277,0.0,0.0,79,0.00,,---,0.00,VWS V14.01,2013-09-04 14:20:00,
2013-09-04 09:25:00,65.0,58.0,30.14,SSW,208,0.0,3.6,78,0.00,,---,0.00,VWS V14.01,2013-09-04 14:25:00,
2013-09-04 09:30:00,65.6,58.3,30.13,SW,228,0.0,1.8,77,0.00,,---,0.00,VWS V14.01,2013-09-04 14:30:00,
2013-09-04 09:35:00,66.4,58.7,30.14,WSW,256,0.0,0.0,76,0.00,,---,0.00,VWS V14.01,2013-09-04 14:35:00,
2013-09-04 09:40:00,67.3,58.9,30.14,WNW,283,0.0,0.0,74,0.00,,---,0.00,VWS V14.01,2013-09-04 14:40:00,
2013-09-04 09:45:00,68.0,58.5,30.14,WNW,300,1.8,3.6,72,0.00,,---,0.00,VWS V14.01,2013-09-04 14:45:00,
2013-09-04 09:50:00,68.8,58.9,30.14,West,262,0.0,1.8,71,0.00,,---,0.00,VWS V14.01,2013-09-04 14:50:00,
2013-09-04 09:55:00,69.8,59.5,30.14,NW,305,0.0,3.6,70,0.00,,---,0.00,VWS V14.01,2013-09-04 14:55:00,
2013-09-04 10:00:00,70.7,59.2,30.14,WSW,245,0.0,3.6,67,0.00,,---,0.00,VWS V14.01,2013-09-04 15:00:00,
2013-09-04 10:05:00,71.5,59.2,30.14,NW,313,3.6,5.4,65,0.00,,---,0.00,VWS V14.01,2013-09-04 15:05:00,
2013-09-04 10:10:00,72.1,59.7,30.14,West,270,0.0,3.6,65,0.00,,---,0.00,VWS V14.01,2013-09-04 15:10:00,
2013-09-04 10:15:00,72.7,59.9,30.14,SE,132,1.8,3.6,64,0.00,,---,0.00,VWS V14.01,2013-09-04 15:15:00,
2013-09-04 10:20:00,73.3,59.2,30.15,West,262,1.8,3.6,61,0.00,,---,0.00,VWS V14.01,2013-09-04 15:20:00,
2013-09-04 10:25:00,74.0,59.5,30.15,West,264,0.0,1.8,60,0.00,,---,0.00,VWS V14.01,2013-09-04 15:25:00,
2013-09-04 10:30:00,74.7,59.2,30.15,West,269,1.8,5.4,59,0.00,,---,0.00,VWS V14.01,2013-09-04 15:30:00,
2013-09-04 10:35:00,75.4,58.5,30.14,WSW,255,0.0,3.6,56,0.00,,---,0.00,VWS V14.01,2013-09-04 15:35:00,
2013-09-04 10:40:00,75.9,58.5,30.14,SSE,165,1.8,5.4,55,0.00,,---,0.00,VWS V14.01,2013-09-04 15:40:00,
2013-09-04 10:45:00,76.6,58.7,30.14,WSW,257,0.0,1.8,54,0.00,,---,0.00,VWS V14.01,2013-09-04 15:45:00,
2013-09-04 10:50:00,77.3,57.9,30.14,WSW,257,1.8,5.4,51,0.00,,---,0.00,VWS V14.01,2013-09-04 15:50:00,
2013-09-04 10:55:00,77.5,58.0,30.14,WNW,290,0.0,3.6,51,0.00,,---,0.00,VWS V14.01,2013-09-04 15:55:00,
2013-09-04 11:00:00,78.0,57.5,30.14,WSW,255,3.6,3.6,49,0.00,,---,0.00,VWS V14.01,2013-09-04 16:00:00,
2013-09-04 11:05:00,78.1,57.6,30.14,West,280,0.0,3.6,49,0.00,,---,0.00,VWS V14.01,2013-09-04 16:05:00,
2013-09-04 11:10:00,78.3,57.8,30.14,WNW,296,0.0,1.8,49,0.00,,---,0.00,VWS V14.01,2013-09-04 16:10:00,
2013-09-04 11:15:00,78.8,58.2,30.14,South,169,3.6,5.4,49,0.00,,---,0.00,VWS V14.01,2013-09-04 16:15:00,
2013-09-04 11:20:00,79.3,58.1,30.14,WSW,256,0.0,3.6,48,0.00,,---,0.00,VWS V14.01,2013-09-04 16:20:00,
2013-09-04 11:25:00,79.7,58.5,30.14,WSW,241,1.8,5.4,48,0.00,,---,0.00,VWS V14.01,2013-09-04 16:25:00,
2013-09-04 11:30:00,80.4,58.0,30.14,East,81,0.0,1.8,46,0.00,,---,0.00,VWS V14.01,2013-09-04 16:30:00,
2013-09-04 11:35:00,80.8,57.8,30.14,South,177,5.4,9.0,46,0.00,,---,0.00,VWS V14.01,2013-09-04 16:35:00,
2013-09-04 11:40:00,81.2,58.2,30.14,WSW,252,0.0,9.0,46,0.00,,---,0.00,VWS V14.01,2013-09-04 16:40:00,
2013-09-04 11:45:00,81.0,58.0,30.14,ESE,110,1.8,7.2,46,0.00,,---,0.00,VWS V14.01,2013-09-04 16:45:00,
2013-09-04 11:50:00,81.2,58.2,30.14,NW,315,3.6,5.4,46,0.00,,---,0.00,VWS V14.01,2013-09-04 16:50:00,
2013-09-04 11:55:00,80.9,57.9,30.13,WNW,295,0.0,3.6,46,0.00,,---,0.00,VWS V14.01,2013-09-04 16:55:00,
2013-09-04 12:00:00,81.7,58.1,30.13,NW,324,3.6,5.4,45,0.00,,---,0.00,VWS V14.01,2013-09-04 17:00:00,
2013-09-04 12:05:00,82.0,57.8,30.13,NE,35,1.8,9.0,44,0.00,,---,0.00,VWS V14.01,2013-09-04 17:05:00,
2013-09-04 12:09:00,82.0,57.8,30.13,SE,127,1.8,5.4,44,0.00,,---,0.00,VWS V14.01,2013-09-04 17:09:00,
2013-09-04 12:14:00,82.4,58.7,30.13,South,174,5.4,5.4,45,0.00,,---,0.00,VWS V14.01,2013-09-04 17:14:00,
2013-09-04 12:19:00,82.9,58.6,30.13,West,264,1.8,3.6,44,0.00,,---,0.00,VWS V14.01,2013-09-04 17:19:00,
2013-09-04 12:24:00,83.0,57.5,30.13,ENE,70,1.8,1.8,42,0.00,,---,0.00,VWS V14.01,2013-09-04 17:24:00,
2013-09-04 12:29:00,83.4,57.8,30.13,West,259,1.8,3.6,42,0.00,,---,0.00,VWS V14.01,2013-09-04 17:29:00,
2013-09-04 12:34:00,83.5,59.1,30.13,NW,316,1.8,5.4,44,0.00,,---,0.00,VWS V14.01,2013-09-04 17:34:00,
2013-09-04 12:39:00,83.9,57.7,30.13,ESE,108,1.8,5.4,41,0.00,,---,0.00,VWS V14.01,2013-09-04 17:39:00,
2013-09-04 12:44:00,83.9,58.3,30.13,West,276,1.8,3.6,42,0.00,,---,0.00,VWS V14.01,2013-09-04 17:44:00,
2013-09-04 12:49:00,83.5,57.9,30.12,NW,319,0.0,7.2,42,0.00,,---,0.00,VWS V14.01,2013-09-04 17:49:00,
2013-09-04 12:54:00,83.4,58.4,30.12,WNW,293,0.0,7.2,43,0.00,,---,0.00,VWS V14.01,2013-09-04 17:54:00,
2013-09-04 12:59:00,84.1,58.5,30.12,SW,235,1.8,7.2,42,0.00,,---,0.00,VWS V14.01,2013-09-04 17:59:00,
2013-09-04 13:04:00,84.8,58.5,30.13,West,259,1.8,3.6,41,0.00,,---,0.00,VWS V14.01,2013-09-04 18:04:00,
2013-09-04 13:09:00,84.4,58.1,30.13,NW,319,0.0,5.4,41,0.00,,---,0.00,VWS V14.01,2013-09-04 18:09:00,
2013-09-04 13:14:00,84.5,57.5,30.13,ESE,104,1.8,7.2,40,0.00,,---,0.00,VWS V14.01,2013-09-04 18:14:00,
2013-09-04 13:19:00,84.8,58.5,30.12,SE,135,0.0,5.4,41,0.00,,---,0.00,VWS V14.01,2013-09-04 18:19:00,
2013-09-04 13:24:00,85.1,58.1,30.12,West,264,1.8,3.6,40,0.00,,---,0.00,VWS V14.01,2013-09-04 18:24:00,
2013-09-04 13:29:00,84.6,57.6,30.12,WNW,301,0.0,5.4,40,0.00,,---,0.00,VWS V14.01,2013-09-04 18:29:00,
2013-09-04 13:34:00,84.5,57.5,30.12,West,277,1.8,7.2,40,0.00,,---,0.00,VWS V14.01,2013-09-04 18:34:00,
2013-09-04 13:39:00,84.7,58.4,30.12,West,273,0.0,5.4,41,0.00,,---,0.00,VWS V14.01,2013-09-04 18:39:00,
2013-09-04 13:44:00,84.7,57.7,30.12,WSW,252,0.0,5.4,40,0.00,,---,0.00,VWS V14.01,2013-09-04 18:44:00,
2013-09-04 13:49:00,84.9,58.5,30.12,West,260,1.8,3.6,41,0.00,,---,0.00,VWS V14.01,2013-09-04 18:49:00,
2013-09-04 13:54:00,85.1,58.1,30.12,WSW,250,0.0,5.4,40,0.00,,---,0.00,VWS V14.01,2013-09-04 18:54:00,
2013-09-04 13:59:00,85.4,58.3,30.12,North,11,0.0,7.2,40,0.00,,---,0.00,VWS V14.01,2013-09-04 18:59:00,
2013-09-04 14:04:00,85.6,58.5,30.12,NW,305,1.8,7.2,40,0.00,,---,0.00,VWS V14.01,2013-09-04 19:04:00,
2013-09-04 14:09:00,85.6,58.5,30.11,SW,218,1.8,5.4,40,0.00,,---,0.00,VWS V14.01,2013-09-04 19:09:00,
2013-09-04 14:14:00,85.6,58.5,30.11,NW,310,0.0,7.2,40,0.00,,---,0.00,VWS V14.01,2013-09-04 19:14:00,
2013-09-04 14:19:00,85.3,58.3,30.11,WNW,295,1.8,5.4,40,0.00,,---,0.00,VWS V14.01,2013-09-04 19:19:00,
2013-09-04 14:24:00,85.8,58.7,30.11,ENE,69,1.8,1.8,40,0.00,,---,0.00,VWS V14.01,2013-09-04 19:24:00,
2013-09-04 14:29:00,85.8,58.7,30.11,West,259,1.8,3.6,40,0.00,,---,0.00,VWS V14.01,2013-09-04 19:29:00,
2013-09-04 14:34:00,85.7,59.3,30.11,NW,322,0.0,3.6,41,0.00,,---,0.00,VWS V14.01,2013-09-04 19:34:00,
2013-09-04 14:39:00,85.7,59.3,30.11,West,270,0.0,5.4,41,0.00,,---,0.00,VWS V14.01,2013-09-04 19:39:00,
2013-09-04 14:44:00,85.8,58.7,30.11,SSW,197,0.0,3.6,40,0.00,,---,0.00,VWS V14.01,2013-09-04 19:44:00,
2013-09-04 14:49:00,85.7,58.6,30.10,WNW,288,0.0,5.4,40,0.00,,---,0.00,VWS V14.01,2013-09-04 19:49:00,
2013-09-04 14:54:00,85.9,59.4,30.11,West,273,1.8,9.0,41,0.00,,---,0.00,VWS V14.01,2013-09-04 19:54:00,
2013-09-04 14:59:00,85.8,59.3,30.10,NNW,329,1.8,5.4,41,0.00,,---,0.00,VWS V14.01,2013-09-04 19:59:00,
2013-09-04 15:04:00,85.7,58.6,30.10,NW,322,3.6,5.4,40,0.00,,---,0.00,VWS V14.01,2013-09-04 20:04:00,
2013-09-04 15:09:00,85.5,59.7,30.10,SSE,148,0.0,3.6,42,0.00,,---,0.00,VWS V14.01,2013-09-04 20:09:00,
2013-09-04 15:14:00,85.9,59.4,30.10,WSW,252,0.0,1.8,41,0.00,,---,0.00,VWS V14.01,2013-09-04 20:14:00,
2013-09-04 15:19:00,85.8,59.3,30.10,West,264,1.8,1.8,41,0.00,,---,0.00,VWS V14.01,2013-09-04 20:19:00,
2013-09-04 15:24:00,85.6,59.2,30.09,WSW,237,3.6,5.4,41,0.00,,---,0.00,VWS V14.01,2013-09-04 20:24:00,
2013-09-04 15:29:00,85.2,58.8,30.09,WSW,256,1.8,7.2,41,0.00,,---,0.00,VWS V14.01,2013-09-04 20:29:00,
2013-09-04 15:34:00,85.0,59.3,30.09,West,259,1.8,7.2,42,0.00,,---,0.00,VWS V14.01,2013-09-04 20:34:00,
2013-09-04 15:39:00,84.9,59.2,30.09,WNW,300,0.0,3.6,42,0.00,,---,0.00,VWS V14.01,2013-09-04 20:39:00,
2013-09-04 15:44:00,85.0,59.3,30.09,WSW,243,5.4,5.4,42,0.00,,---,0.00,VWS V14.01,2013-09-04 20:44:00,
2013-09-04 15:49:00,85.0,59.9,30.09,SW,236,3.6,5.4,43,0.00,,---,0.00,VWS V14.01,2013-09-04 20:49:00,
2013-09-04 15:54:00,84.8,59.1,30.09,SW,226,1.8,7.2,42,0.00,,---,0.00,VWS V14.01,2013-09-04 20:54:00,
2013-09-04 15:59:00,84.4,58.7,30.09,West,266,0.0,5.4,42,0.00,,---,0.00,VWS V14.01,2013-09-04 20:59:00,
2013-09-04 16:04:00,84.2,59.8,30.08,NW,314,0.0,3.6,44,0.00,,---,0.00,VWS V14.01,2013-09-04 21:04:00,
2013-09-04 16:09:00,84.4,59.9,30.08,SSW,203,5.4,7.2,44,0.00,,---,0.00,VWS V14.01,2013-09-04 21:09:00,
2013-09-04 16:14:00,84.6,59.5,30.08,WNW,290,0.0,5.4,43,0.00,,---,0.00,VWS V14.01,2013-09-04 21:14:00,
2013-09-04 16:19:00,84.6,59.5,30.08,WNW,302,0.0,5.4,43,0.00,,---,0.00,VWS V14.01,2013-09-04 21:19:00,
2013-09-04 16:24:00,84.8,59.7,30.08,South,169,3.6,5.4,43,0.00,,---,0.00,VWS V14.01,2013-09-04 21:24:00,
2013-09-04 16:29:00,85.2,60.1,30.08,WNW,296,1.8,3.6,43,0.00,,---,0.00,VWS V14.01,2013-09-04 21:29:00,
2013-09-04 16:34:00,85.5,60.3,30.08,SSW,195,3.6,5.4,43,0.00,,---,0.00,VWS V14.01,2013-09-04 21:34:00,
2013-09-04 16:39:00,85.5,59.1,30.08,West,273,0.0,5.4,41,0.00,,---,0.00,VWS V14.01,2013-09-04 21:39:00,
2013-09-04 16:44:00,85.3,59.5,30.07,West,259,1.8,5.4,42,0.00,,---,0.00,VWS V14.01,2013-09-04 21:44:00,
2013-09-04 16:49:00,85.0,59.3,30.07,SW,224,3.6,5.4,42,0.00,,---,0.00,VWS V14.01,2013-09-04 21:49:00,
2013-09-04 16:54:00,84.9,59.8,30.07,WSW,257,1.8,5.4,43,0.00,,---,0.00,VWS V14.01,2013-09-04 21:54:00,
2013-09-04 16:59:00,85.1,60.0,30.07,West,259,0.0,3.6,43,0.00,,---,0.00,VWS V14.01,2013-09-04 21:59:00,
2013-09-04 17:04:00,85.2,60.1,30.07,SW,233,0.0,1.8,43,0.00,,---,0.00,VWS V14.01,2013-09-04 22:04:00,
2013-09-04 17:09:00,85.1,60.6,30.07,West,269,0.0,5.4,44,0.00,,---,0.00,VWS V14.01,2013-09-04 22:09:00,
2013-09-04 17:14:00,85.0,59.9,30.07,West,260,0.0,9.0,43,0.00,,---,0.00,VWS V14.01,2013-09-04 22:14:00,
2013-09-04 17:19:00,84.9,61.0,30.07,WSW,238,0.0,1.8,45,0.00,,---,0.00,VWS V14.01,2013-09-04 22:19:00,
2013-09-04 17:24:00,84.8,60.3,30.07,WSW,257,1.8,5.4,44,0.00,,---,0.00,VWS V14.01,2013-09-04 22:24:00,
2013-09-04 17:29:00,84.5,60.6,30.07,WSW,243,0.0,1.8,45,0.00,,---,0.00,VWS V14.01,2013-09-04 22:29:00,
2013-09-04 17:34:00,84.3,61.0,30.07,WSW,255,0.0,1.8,46,0.00,,---,0.00,VWS V14.01,2013-09-04 22:34:00,
2013-09-04 17:39:00,84.1,60.8,30.07,WNW,293,0.0,3.6,46,0.00,,---,0.00,VWS V14.01,2013-09-04 22:39:00,
2013-09-04 17:44:00,83.9,61.2,30.07,SW,218,0.0,0.0,46,0.00,,---,0.00,VWS V14.01,2013-09-04 22:44:00,
2013-09-04 17:49:00,83.7,61.0,30.07,South,177,0.0,0.0,46,0.00,,---,0.00,VWS V14.01,2013-09-04 22:49:00,
2013-09-04 17:54:00,83.4,60.8,30.07,West,259,0.0,1.8,46,0.00,,---,0.00,VWS V14.01,2013-09-04 22:54:00,
2013-09-04 17:59:00,83.1,61.1,30.07,SSW,200,0.0,0.0,47,0.00,,---,0.00,VWS V14.01,2013-09-04 22:59:00,
2013-09-04 18:04:00,82.9,61.4,30.07,WSW,249,1.8,1.8,48,0.00,,---,0.00,VWS V14.01,2013-09-04 23:04:00,
2013-09-04 18:09:00,82.6,61.7,30.07,West,269,0.0,1.8,49,0.00,,---,0.00,VWS V14.01,2013-09-04 23:09:00,
2013-09-04 18:14:00,82.3,61.9,30.07,South,185,0.0,3.6,50,0.00,,---,0.00,VWS V14.01,2013-09-04 23:14:00,
2013-09-04 18:19:00,81.9,62.1,30.07,SSW,203,0.0,3.6,51,0.00,,---,0.00,VWS V14.01,2013-09-04 23:19:00,
2013-09-04 18:24:00,81.5,62.2,30.07,SSW,194,0.0,3.6,52,0.00,,---,0.00,VWS V14.01,2013-09-04 23:24:00,
2013-09-04 18:29:00,81.2,62.5,30.07,South,176,1.8,5.4,53,0.00,,---,0.00,VWS V14.01,2013-09-04 23:29:00,
2013-09-04 18:34:00,80.8,62.6,30.07,South,179,1.8,1.8,54,0.00,,---,0.00,VWS V14.01,2013-09-04 23:34:00,
2013-09-04 18:39:00,80.5,62.8,30.07,South,181,0.0,0.0,55,0.00,,---,0.00,VWS V14.01,2013-09-04 23:39:00,
2013-09-04 18:44:00,80.1,62.4,30.07,South,183,0.0,1.8,55,0.00,,---,0.00,VWS V14.01,2013-09-04 23:44:00,
2013-09-04 18:49:00,79.8,62.6,30.07,South,184,0.0,0.0,56,0.00,,---,0.00,VWS V14.01,2013-09-04 23:49:00,
2013-09-04 18:54:00,79.5,62.8,30.07,South,184,0.0,0.0,57,0.00,,---,0.00,VWS V14.01,2013-09-04 23:54:00,
2013-09-04 18:59:00,79.2,62.5,30.06,South,191,0.0,0.0,57,0.00,,---,0.00,VWS V14.01,2013-09-04 23:59:00,
2013-09-04 19:04:00,78.9,62.7,30.06,South,190,0.0,0.0,58,0.00,,---,0.00,VWS V14.01,2013-09-05 00:04:00,
2013-09-04 19:09:00,78.5,62.8,30.06,South,191,0.0,0.0,59,0.00,,---,0.00,VWS V14.01,2013-09-05 00:09:00,
2013-09-04 19:14:00,78.0,62.8,30.06,South,190,0.0,0.0,60,0.00,,---,0.00,VWS V14.01,2013-09-05 00:14:00,
2013-09-04 19:19:00,77.5,62.8,30.06,South,190,0.0,0.0,60,0.00,,---,0.00,VWS V14.01,2013-09-05 00:19:00,
2013-09-04 19:24:00,77.0,62.3,30.06,South,190,0.0,0.0,60,0.00,,---,0.00,VWS V14.01,2013-09-05 00:24:00,
2013-09-04 19:29:00,76.4,62.2,30.06,South,191,0.0,0.0,61,0.00,,---,0.00,VWS V14.01,2013-09-05 00:29:00,
2013-09-04 19:34:00,75.8,62.4,30.06,South,190,0.0,0.0,63,0.00,,---,0.00,VWS V14.01,2013-09-05 00:34:00,
2013-09-04 19:39:00,75.2,61.9,30.07,South,190,0.0,0.0,63,0.00,,---,0.00,VWS V14.01,2013-09-05 00:39:00,
2013-09-04 19:44:00,74.8,61.9,30.07,South,191,0.0,0.0,64,0.00,,---,0.00,VWS V14.01,2013-09-05 00:44:00,
2013-09-04 19:49:00,74.3,61.8,30.07,South,190,0.0,0.0,65,0.00,,---,0.00,VWS V14.01,2013-09-05 00:49:00,
2013-09-04 19:54:00,73.8,61.8,30.07,South,190,0.0,0.0,66,0.00,,---,0.00,VWS V14.01,2013-09-05 00:54:00,
2013-09-04 19:59:00,73.5,61.5,30.07,South,191,0.0,0.0,66,0.00,,---,0.00,VWS V14.01,2013-09-05 00:59:00,
2013-09-04 20:04:00,73.4,61.8,30.07,South,190,0.0,0.0,67,0.00,,---,0.00,VWS V14.01,2013-09-05 01:04:00,
2013-09-04 20:09:00,73.2,61.2,30.07,South,191,0.0,0.0,66,0.00,,---,0.00,VWS V14.01,2013-09-05 01:09:00,
2013-09-04 20:14:00,73.1,61.5,30.07,South,190,0.0,0.0,67,0.00,,---,0.00,VWS V14.01,2013-09-05 01:14:00,
2013-09-04 20:19:00,72.9,61.3,30.08,South,190,0.0,0.0,67,0.00,,---,0.00,VWS V14.01,2013-09-05 01:19:00,
2013-09-04 20:24:00,72.5,61.3,30.08,South,190,0.0,0.0,68,0.00,,---,0.00,VWS V14.01,2013-09-05 01:24:00,
2013-09-04 20:29:00,72.2,61.0,30.08,South,190,0.0,0.0,68,0.00,,---,0.00,VWS V14.01,2013-09-05 01:29:00,
2013-09-04 20:34:00,72.0,61.2,30.08,South,191,0.0,0.0,69,0.00,,---,0.00,VWS V14.01,2013-09-05 01:34:00,
2013-09-04 20:39:00,71.7,60.9,30.08,South,190,0.0,0.0,69,0.00,,---,0.00,VWS V14.01,2013-09-05 01:39:00,
2013-09-04 20:44:00,71.5,60.7,30.09,South,190,0.0,0.0,69,0.00,,---,0.00,VWS V14.01,2013-09-05 01:44:00,
2013-09-04 20:49:00,71.3,60.9,30.09,South,190,0.0,0.0,70,0.00,,---,0.00,VWS V14.01,2013-09-05 01:49:00,
2013-09-04 20:54:00,71.1,60.7,30.09,South,190,0.0,0.0,70,0.00,,---,0.00,VWS V14.01,2013-09-05 01:54:00,
2013-09-04 20:59:00,70.8,60.8,30.09,South,190,0.0,0.0,71,0.00,,---,0.00,VWS V14.01,2013-09-05 01:59:00,
2013-09-04 21:04:00,70.4,60.4,30.09,South,189,0.0,0.0,71,0.00,,---,0.00,VWS V14.01,2013-09-05 02:04:00,
2013-09-04 21:09:00,70.0,60.4,30.10,South,190,0.0,0.0,72,0.00,,---,0.00,VWS V14.01,2013-09-05 02:09:00,
2013-09-04 21:14:00,69.6,60.4,30.10,South,190,0.0,0.0,73,0.00,,---,0.00,VWS V14.01,2013-09-05 02:14:00,
2013-09-04 21:19:00,69.3,60.5,30.10,South,190,0.0,0.0,73,0.00,,---,0.00,VWS V14.01,2013-09-05 02:19:00,
2013-09-04 21:24:00,69.1,60.6,30.10,South,190,0.0,0.0,74,0.00,,---,0.00,VWS V14.01,2013-09-05 02:24:00,
2013-09-04 21:29:00,68.9,60.8,30.10,South,190,0.0,0.0,75,0.00,,---,0.00,VWS V14.01,2013-09-05 02:29:00,
2013-09-04 21:34:00,68.6,60.5,30.10,South,190,0.0,0.0,75,0.00,,---,0.00,VWS V14.01,2013-09-05 02:34:00,
2013-09-04 21:39:00,68.4,60.6,30.10,South,190,0.0,0.0,76,0.00,,---,0.00,VWS V14.01,2013-09-05 02:39:00,
2013-09-04 21:44:00,68.2,60.5,30.10,South,190,0.0,0.0,76,0.00,,---,0.00,VWS V14.01,2013-09-05 02:44:00,
2013-09-04 21:49:00,68.0,60.3,30.10,South,190,0.0,0.0,76,0.00,,---,0.00,VWS V14.01,2013-09-05 02:49:00,
2013-09-04 21:54:00,67.9,60.5,30.10,South,190,0.0,0.0,77,0.00,,---,0.00,VWS V14.01,2013-09-05 02:54:00,
2013-09-04 21:59:00,68.0,60.6,30.10,South,190,0.0,0.0,77,0.00,,---,0.00,VWS V14.01,2013-09-05 02:59:00,
2013-09-04 22:04:00,68.1,60.7,30.10,South,190,0.0,0.0,77,0.00,,---,0.00,VWS V14.01,2013-09-05 03:04:00,
2013-09-04 22:09:00,68.1,60.3,30.10,South,190,0.0,0.0,76,0.00,,---,0.00,VWS V14.01,2013-09-05 03:09:00,
2013-09-04 22:14:00,67.9,60.5,30.10,South,190,0.0,0.0,77,0.00,,---,0.00,VWS V14.01,2013-09-05 03:14:00,
2013-09-04 22:19:00,67.6,60.2,30.10,South,190,0.0,0.0,77,0.00,,---,0.00,VWS V14.01,2013-09-05 03:19:00,
2013-09-04 22:24:00,67.4,60.0,30.10,South,190,0.0,0.0,77,0.00,,---,0.00,VWS V14.01,2013-09-05 03:24:00,
2013-09-04 22:29:00,67.1,60.1,30.10,South,190,0.0,0.0,78,0.00,,---,0.00,VWS V14.01,2013-09-05 03:29:00,
2013-09-04 22:34:00,67.0,60.3,30.10,South,190,0.0,0.0,79,0.00,,---,0.00,VWS V14.01,2013-09-05 03:34:00,
2013-09-04 22:39:00,67.0,60.3,30.10,South,190,0.0,0.0,79,0.00,,---,0.00,VWS V14.01,2013-09-05 03:39:00,
2013-09-04 22:44:00,67.0,60.6,30.10,South,190,0.0,0.0,80,0.00,,---,0.00,VWS V14.01,2013-09-05 03:44:00,
2013-09-04 22:49:00,67.0,60.6,30.10,South,190,0.0,0.0,80,0.00,,---,0.00,VWS V14.01,2013-09-05 03:49:00,
2013-09-04 22:54:00,67.0,60.6,30.10,South,190,0.0,0.0,80,0.00,,---,0.00,VWS V14.01,2013-09-05 03:54:00,
2013-09-04 22:59:00,66.9,60.2,30.10,South,190,0.0,0.0,79,0.00,,---,0.00,VWS V14.01,2013-09-05 03:59:00,
2013-09-04 23:01:00,66.8,60.1,30.10,South,190,0.0,0.0,79,0.00,,---,0.00,VWS V14.01,2013-09-05 04:01:00,
2013-09-04 23:02:00,66.8,60.4,30.10,South,190,0.0,0.0,80,0.00,,---,0.00,VWS V14.01,2013-09-05 04:02:00,
2013-09-04 23:07:00,66.7,60.3,30.10,South,187,0.0,0.0,80,0.00,,---,0.00,VWS V14.01,2013-09-05 04:07:00,
2013-09-04 23:12:00,66.6,60.2,30.10,South,187,0.0,0.0,80,0.00,,---,0.00,VWS V14.01,2013-09-05 04:12:00,
2013-09-04 23:17:00,66.4,60.4,30.10,South,187,0.0,0.0,81,0.00,,---,0.00,VWS V14.01,2013-09-05 04:17:00,
2013-09-04 23:22:00,66.2,60.2,30.10,South,187,0.0,0.0,81,0.00,,---,0.00,VWS V14.01,2013-09-05 04:22:00,
2013-09-04 23:27:00,66.0,60.0,30.10,South,187,0.0,0.0,81,0.00,,---,0.00,VWS V14.01,2013-09-05 04:27:00,
2013-09-04 23:32:00,65.8,59.8,30.10,South,187,0.0,0.0,81,0.00,,---,0.00,VWS V14.01,2013-09-05 04:32:00,
2013-09-04 23:37:00,65.6,59.9,30.11,South,187,0.0,0.0,82,0.00,,---,0.00,VWS V14.01,2013-09-05 04:37:00,
2013-09-04 23:42:00,65.4,59.7,30.11,South,187,0.0,0.0,82,0.00,,---,0.00,VWS V14.01,2013-09-05 04:42:00,
2013-09-04 23:47:00,65.3,59.9,30.11,South,187,0.0,0.0,83,0.00,,---,0.00,VWS V14.01,2013-09-05 04:47:00,
2013-09-04 23:52:00,65.3,59.9,30.11,South,187,0.0,0.0,83,0.00,,---,0.00,VWS V14.01,2013-09-05 04:52:00,
2013-09-04 23:57:00,65.2,59.8,30.11,South,187,0.0,0.0,83,0.00,,---,0.00,VWS V14.01,2013-09-05 04:57:00,